OPS 4682 DEB, 38423

Orbit data source: Space-Track

OPS 4682 DEB, 38423 is space debris in LEO originally from a launch on Sat, 03 Apr 1965 UTC launched from the Air Force Western Test Range (AFWTR). Debris objects in space refer to the collection of defunct objects orbiting the Earth. Examples of debris include non-operational satellites, rocket bodies, and fragments generated from explosions, collisions, or faulty payload assembly.

Loading next visibility...
Identifier
38423, 1965-027EC
Orbit
LEO
Country
Flag of USUS
Related business
Manufacturer
Unknown
Mission
Spacecraft
Bus & Motor
Unknown
Mass
Unknown
Launch date (UTC)
1965-04-03 (61 years ago)
Launch vehicle
Unknown
Launch site
Air Force Western Test Range (AFWTR)
Object type
Payload
Rocket body
Debris
Shape & HBR
Unknown shape, 0.1 m
Radar Cross Section
Small (<0.1 m²)

Expand to show TLE details & history
Last TLE update: 8 hours ago

TLE from 8 hours ago
0 OPS 4682 DEB
1 38423U 65027EC  26132.08489058 -.00000006  00000-0 -45767-4 0  9997
2 38423  90.2508  11.0028 0015670 338.3263  21.7191 12.95293413629440
Epoch: 2026-05-12T02:02Z
TLE epoch observation values (Epoch: 2026-05-12T02:02:14.546Z)
Latitude
-0.00005°
Longitude
110.57786°
Altitude
1,272.311 km
Speed
7.225 km/s
True Right ascension
00h 44m 00s
True Declination
0° 00' 00"
Sunlit
Object was in daylight at epoch
Visualization orbit readout
Latitude
Unknown
Longitude
Unknown
Altitude
Unknown
Speed
Unknown
Apparent Right ascension
Unknown
Apparent Declination
Unknown
Sunlit
N/A
Visualization observer readout
Local Sidereal Time
18:08:31
Azimuth
Unknown
Elevation
Unknown
Doppler factor
Unknown
Orbital elements
Apogee altitude
1,289.714 km
Perigee altitude
1,265.72 km
Semi-major axis
7,655.854 km
Eccentricity
0.00157
Inclination
90.2508°
RAAN
11.0028°
Arg. of periapsis
338.3263°
True anomaly
21.78567°
Mean anomaly
21.7191°
Eccentric anomaly
21.75237°
Mean motion
3.24006 °/min
Orbital period
111.11 mins
BSTAR
-0.000045767
Loading maneuver chart data...
Computing Atmospheric mass density...
Loading historical data...
Loading historical data...
Loading historical data...
Loading historical data...
Loading historical data...
Loading historical data...
Loading historical data...

Documentation

Showing up to 5 results
|